Temp
27 28 28 28 29 28 29 29 29 28 28 28 27 27 26 27 28 29 31 31 32 33 31 31 31 31 30 30 31 31 30 30 33 32 36 37 42 42 42 47 49 48 53
25 26 26 26 27 28 28 28 29 28 29 29 28 27 26 27 28 29 28 30 31 31 33 30 29 29 28 29 28 29 28 29 31 28 31 30 34 37 42 44 43 44 45
26 26 26 26 26 26 27 29 29 28 27 28 29 29 29 29 28 28 28 28 29 30 30 29 29 28 29 27 27 27 27 26 28 29 28 25 24 28 36 39 39 41 40
29 29 28 26 27 27 30 30 30 31 30 29 27 25 25 25 25 25 27 27 27 28 29 29 29 28 27 26 27 30 26 26 26 28 32 29 28 25 24 34 37 37 39
29 28 27 28 27 28 26 27 28 29 28 28 27 25 24 24 24 24 23 24 25 27 29 29 27 26 27 26 26 25 25 26 26 26 26 26 27 27 27 23 28 33 36
24 26 27 28 26 27 25 25 26 25 25 25 24 23 23 23 23 23 23 24 25 25 26 28 26 26 26 26 26 26 25 25 26 27 26 26 25 26 24 23 25 25 31
22 23 23 23 23 23 24 24 24 23 24 24 24 23 23 22 22 22 22 22 23 24 24 25 25 25 26 26 26 26 27 27 26 25 26 27 27 28 27 26 24 24 28
20 20 20 20 22 24 21 21 22 22 22 22 22 22 23 22 23 23 22 22 22 23 25 24 24 24 25 25 25 26 26 27 27 25 25 27 27 28 28 26 24 22 25
13 14 17 18 18 17 18 19 19 20 20 21 21 20 21 21 21 22 22 22 22 25 26 24 23 23 23 24 24 24 24 24 25 26 26 25 27 28 27 28 27 24 19
10 8 9 11 12 15 15 17 18 17 18 19 18 20 19 20 20 21 20 21 22 23 23 22 23 23 23 23 22 22 24 23 24 26 25 25 26 26 27 27 27 26 24
11 10 7 7 8 11 11 14 17 17 17 18 17 16 17 19 19 20 20 20 22 21 21 22 22 22 22 22 22 21 21 21 22 24 24 24 25 25 26 27 26 26 26
11 8 7 5 7 7 11 11 14 14 16 16 15 16 17 18 17 18 19 20 19 21 20 21 21 21 22 22 21 20 22 20 20 21 22 22 27 25 25 25 25 25 26
11 9 8 7 5 5 4 8 11 12 14 13 14 15 15 15 15 16 17 18 18 18 19 21 20 20 21 21 21 21 21 21 21 22 22 22 23 22 24 24 24 25 28
16 11 11 9 7 6 1 3 7 11 10 11 12 12 13 14 14 15 16 16 17 17 18 19 19 20 20 22 22 23 22 22 23 24 25 24 24 24 24 26 25 27 26
17 14 9 3 1 -0 3 2 3 4 8 6 9 10 13 13 14 14 15 16 17 17 18 18 19 19 20 22 22 24 24 24 24 25 27 27 29 31 32 29 28 28 27
13 13 13 12 10 7 4 5 3 3 -2 3 6 10 11 12 13 13 14 15 15 16 16 16 17 16 20 24 27 27 25 25 26 24 26 27 29 29 32 34 35 34 29
6 7 6 4 3 2 3 1 3 -1 -4 -1 4 5 7 9 11 12 13 13 13 15 14 15 16 16 17 23 26 28 27 26 25 25 25 26 29 29 28 30 32 33 34
2 4 4 3 3 2 1 -0 0 -1 -2 1 2 3 4 6 9 9 11 12 13 13 13 14 15 15 17 23 25 28 26 25 24 24 24 24 24 26 27 28 28 28 29
-1 0 -1 -2 -2 -1 3 0 -1 -0 -1 1 -0 2 3 2 4 5 6 10 10 11 12 15 15 15 17 22 24 26 24 24 23 25 25 25 25 29 32 29 27 27 28
-4 -2 2 2 0 3 1 -2 0 -1 1 4 2 3 2 0 -1 2 2 4 8 11 14 15 16 18 16 20 23 24 23 20 23 24 26 29 29 32 34 29 27 25 27
1 2 3 2 4 4 -1 -2 1 -1 5 4 4 3 1 0 1 -0 -6 1 2 8 7 9 10 12 14 14 21 25 24 23 23 23 24 26 30 32 33 34 30 29 31
8 9 7 7 8 7 1 2 2 6 5 2 3 2 0 2 4 -4 -1 -5 -4 -2 1 2 4 9 12 18 20 24 27 27 24 22 25 26 29 31 32 32 33 34 34
10 10 8 8 9 9 5 4 6 6 5 1 1 1 -0 0 -2 -5 -2 -3 -8 -4 -1 0 2 4 11 14 20 24 26 27 25 26 27 30 31 31 31 31 31 33 29
9 10 8 7 7 9 10 8 7 6 2 2 3 3 -1 -0 -4 2 3 0 0 -1 -0 0 1 3 6 10 15 18 19 23 24 25 24 27 29 30 29 28 27 27 26
9 9 7 7 7 9 8 8 10 8 5 3 3 3 5 2 2 2 2 -1 2 4 1 2 2 3 4 9 18 20 19 22 24 25 23 23 21 22 22 23 23 24 24
7 7 7 6 6 7 7 8 8 8 6 5 6 6 6 4 5 3 3 13 16 19 20 22 19 15 18 23 25 27 26 27 27 22 19 17 18 17 18 18 19 21 21
MSLP
1031.97 1032.30 1032.59 1032.84 1033.02 1033.17 1033.21 1033.32 1033.34 1033.46 1033.42 1033.48 1033.65 1033.78 1034.12 1034.31 1034.29 1034.25 1034.25 1034.08 1033.93 1033.68 1033.57 1033.40 1033.11 1032.86 1032.74 1032.59 1032.13 1031.64 1031.09 1030.52 1030.09 1028.86 1027.36 1026.38 1025.42 1025.34 1025.61 1024.82 1024.28 1024.27 1023.67
1031.78 1032.27 1032.59 1032.79 1033.00 1033.25 1033.37 1033.42 1033.50 1033.56 1033.51 1033.45 1033.64 1033.80 1034.05 1034.38 1034.57 1034.71 1034.72 1034.54 1034.36 1034.13 1033.77 1033.77 1033.59 1033.39 1033.18 1032.98 1032.75 1032.46 1032.01 1031.58 1031.17 1030.72 1029.55 1028.07 1026.54 1025.72 1025.49 1025.55 1025.56 1025.31 1025.06
1031.07 1031.94 1032.53 1032.98 1033.25 1033.45 1033.56 1033.63 1033.73 1033.80 1033.87 1033.76 1033.63 1033.64 1033.74 1034.03 1034.35 1034.51 1034.57 1034.57 1034.44 1034.30 1034.13 1034.04 1033.88 1033.66 1033.45 1033.49 1033.36 1033.21 1032.84 1032.55 1031.95 1031.70 1031.45 1030.51 1029.94 1028.56 1026.45 1026.22 1026.20 1025.88 1025.87
1030.80 1031.54 1032.20 1032.79 1033.16 1033.48 1033.66 1033.84 1033.97 1033.92 1033.96 1033.99 1034.03 1034.17 1034.45 1034.63 1035.01 1035.04 1034.92 1034.80 1034.66 1034.48 1034.35 1034.24 1034.06 1033.92 1033.80 1033.82 1033.64 1033.39 1033.41 1033.14 1032.75 1032.17 1032.05 1032.04 1031.78 1030.64 1028.31 1027.04 1026.83 1026.82 1026.49
1030.50 1031.26 1031.99 1032.56 1033.10 1033.45 1033.77 1033.98 1034.17 1034.27 1034.53 1034.37 1034.39 1034.59 1034.88 1035.19 1035.29 1035.33 1035.15 1034.96 1034.76 1034.59 1034.48 1034.36 1034.28 1034.11 1033.95 1033.88 1033.79 1033.69 1033.63 1033.44 1033.17 1032.84 1032.51 1032.15 1031.67 1031.00 1030.64 1028.59 1027.37 1027.24 1026.94
1030.92 1031.56 1032.16 1032.80 1033.41 1033.75 1034.08 1034.25 1034.43 1034.65 1034.76 1034.73 1034.86 1035.01 1035.34 1035.46 1035.43 1035.30 1035.17 1035.09 1034.97 1034.91 1034.82 1034.64 1034.56 1034.40 1034.16 1033.92 1033.81 1033.68 1033.58 1033.44 1033.13 1032.83 1032.57 1032.37 1032.04 1031.21 1031.03 1029.85 1028.93 1028.08 1026.88
1031.24 1031.97 1032.59 1033.20 1033.82 1034.21 1034.40 1034.59 1034.78 1035.05 1035.21 1035.33 1035.52 1035.70 1035.80 1035.85 1035.85 1035.76 1035.67 1035.47 1035.21 1035.16 1035.20 1035.02 1034.74 1034.50 1034.17 1033.88 1033.68 1033.51 1033.29 1033.13 1032.92 1032.65 1032.37 1032.06 1031.72 1031.37 1030.84 1030.18 1029.26 1028.31 1027.38
1032.34 1032.77 1033.34 1033.87 1034.17 1034.56 1034.91 1035.08 1035.28 1035.56 1035.78 1035.88 1035.91 1036.04 1036.05 1036.04 1035.94 1035.79 1035.85 1035.81 1035.73 1035.43 1035.13 1034.96 1034.86 1034.58 1034.17 1033.82 1033.60 1033.36 1033.11 1032.75 1032.58 1032.32 1032.04 1031.66 1031.28 1031.00 1030.69 1030.29 1029.78 1028.43 1027.65
1032.98 1033.56 1033.97 1034.48 1034.94 1035.30 1035.52 1035.62 1035.77 1035.91 1035.98 1036.00 1035.95 1036.04 1036.07 1036.13 1036.10 1035.98 1035.90 1035.76 1035.64 1035.24 1034.84 1034.90 1034.64 1034.35 1034.06 1033.73 1033.46 1033.17 1032.87 1032.73 1032.37 1031.92 1031.54 1031.22 1030.78 1030.45 1030.20 1029.91 1029.62 1029.11 1027.65
1033.61 1034.03 1034.40 1035.04 1035.33 1035.68 1035.87 1035.90 1036.04 1036.14 1036.17 1036.16 1036.16 1036.09 1036.31 1036.29 1036.21 1036.07 1035.86 1035.70 1035.45 1035.15 1034.92 1034.63 1034.39 1034.12 1033.81 1033.52 1033.34 1033.05 1032.60 1032.37 1031.99 1031.52 1031.18 1030.83 1030.49 1030.11 1029.77 1029.49 1029.18 1028.88 1028.19
1034.25 1034.70 1035.02 1035.46 1035.74 1036.13 1036.34 1036.31 1036.20 1036.21 1036.26 1036.35 1036.51 1036.57 1036.39 1036.16 1036.05 1035.86 1035.71 1035.46 1035.14 1034.92 1034.61 1034.28 1033.99 1033.70 1033.38 1033.08 1032.98 1032.72 1032.29 1031.93 1031.43 1031.17 1030.81 1030.28 1030.03 1029.59 1029.24 1028.99 1028.63 1028.15 1027.77
1034.50 1035.02 1035.51 1036.07 1036.25 1036.44 1036.63 1036.62 1036.53 1036.54 1036.50 1036.52 1036.49 1036.45 1036.23 1035.96 1035.85 1035.68 1035.40 1035.10 1034.83 1034.54 1034.28 1033.87 1033.52 1033.22 1032.87 1032.62 1032.49 1032.07 1031.74 1031.31 1030.90 1030.57 1030.32 1029.81 1029.40 1028.86 1028.61 1028.38 1027.83 1027.28 1026.94
1034.61 1035.21 1035.75 1036.24 1036.66 1036.73 1036.83 1036.88 1036.77 1036.66 1036.56 1036.53 1036.41 1036.12 1035.87 1035.73 1035.52 1035.34 1034.99 1034.75 1034.46 1034.15 1033.79 1033.33 1033.14 1032.81 1032.45 1032.14 1031.78 1031.48 1031.06 1030.74 1030.33 1029.91 1029.56 1029.04 1028.79 1028.18 1027.81 1027.62 1027.07 1026.39 1025.85
1034.61 1035.13 1035.74 1036.21 1036.60 1036.78 1036.94 1037.05 1036.93 1036.58 1036.41 1036.32 1036.27 1036.03 1035.65 1035.39 1035.18 1034.96 1034.66 1034.33 1033.95 1033.60 1033.28 1032.93 1032.56 1032.24 1031.94 1031.52 1031.13 1030.62 1030.23 1029.79 1029.30 1028.86 1028.37 1027.79 1027.54 1027.08 1026.70 1026.29 1025.67 1025.00 1024.69
1034.54 1034.99 1035.61 1036.16 1036.78 1036.81 1036.81 1036.83 1036.58 1036.34 1036.18 1036.15 1035.96 1035.55 1035.20 1034.90 1034.68 1034.36 1034.00 1033.65 1033.33 1032.95 1032.69 1032.28 1031.91 1031.70 1031.38 1030.76 1030.21 1029.68 1029.10 1028.59 1027.96 1027.46 1027.06 1026.65 1026.35 1025.69 1024.91 1024.43 1023.90 1023.77 1023.38
1034.95 1035.18 1035.49 1035.98 1036.37 1036.41 1036.51 1036.48 1036.32 1035.97 1035.73 1035.72 1035.43 1035.00 1034.75 1034.42 1034.09 1033.76 1033.41 1033.08 1032.73 1032.41 1032.09 1031.72 1031.39 1031.04 1030.60 1029.82 1029.05 1028.39 1027.89 1027.43 1026.94 1026.42 1026.08 1025.71 1025.22 1024.83 1024.16 1023.37 1022.67 1022.35 1021.84
1035.26 1035.41 1035.52 1035.84 1036.07 1036.08 1036.08 1035.87 1035.58 1035.20 1035.29 1035.23 1034.78 1034.45 1034.15 1033.84 1033.48 1033.16 1032.87 1032.53 1032.14 1031.79 1031.43 1031.06 1030.70 1030.20 1029.77 1029.08 1028.24 1027.48 1026.74 1026.34 1026.02 1025.74 1025.32 1024.76 1024.20 1023.79 1023.33 1022.73 1022.06 1021.27 1020.81
1035.38 1035.30 1035.32 1035.47 1035.44 1035.41 1035.31 1035.02 1034.90 1034.85 1034.80 1034.57 1034.18 1033.84 1033.52 1033.14 1032.73 1032.46 1032.18 1031.86 1031.53 1031.25 1030.83 1030.36 1029.93 1029.38 1028.87 1028.16 1027.36 1026.50 1025.91 1025.51 1025.14 1024.92 1024.52 1024.04 1023.25 1022.79 1022.33 1021.56 1020.75 1019.95 1019.38
1034.84 1034.80 1034.65 1034.64 1034.53 1034.57 1034.25 1034.27 1034.16 1033.99 1033.88 1033.42 1033.20 1032.74 1032.39 1032.22 1031.99 1031.78 1031.52 1031.18 1030.93 1030.54 1030.14 1029.62 1029.00 1028.45 1027.77 1027.34 1026.64 1025.89 1025.28 1024.69 1024.18 1023.88 1023.45 1022.95 1022.21 1021.51 1020.83 1020.00 1019.24 1018.46 1017.58
1034.35 1034.11 1033.75 1033.61 1033.53 1033.17 1033.03 1033.18 1032.92 1032.72 1032.40 1032.07 1031.71 1031.38 1031.24 1031.23 1031.23 1030.93 1030.73 1030.43 1030.19 1029.69 1029.29 1028.72 1028.26 1027.70 1026.94 1026.55 1025.88 1025.38 1024.70 1023.78 1023.19 1022.66 1022.00 1021.40 1020.65 1019.82 1018.98 1018.43 1017.93 1017.09 1016.22
1033.07 1032.68 1032.62 1032.48 1032.11 1031.84 1031.93 1031.98 1031.68 1031.40 1030.72 1030.59 1030.43 1030.30 1030.16 1030.18 1030.05 1029.93 1029.87 1029.70 1029.50 1029.07 1028.68 1028.27 1027.66 1027.09 1026.57 1025.86 1024.97 1024.10 1023.31 1022.70 1022.03 1021.33 1020.64 1020.06 1019.40 1018.49 1017.80 1017.08 1016.44 1015.71 1015.15
1031.42 1031.20 1030.99 1030.73 1030.48 1030.41 1030.68 1030.54 1030.28 1029.53 1029.53 1029.50 1029.45 1029.30 1029.11 1029.15 1029.15 1029.15 1029.01 1028.97 1028.98 1028.73 1028.08 1027.75 1026.97 1026.21 1025.51 1024.63 1023.78 1022.92 1022.07 1021.44 1020.79 1020.15 1019.47 1018.83 1018.22 1017.39 1016.56 1015.84 1015.13 1014.19 1013.61
1030.10 1029.82 1029.60 1029.22 1029.06 1028.98 1029.14 1029.03 1028.33 1028.56 1028.49 1028.57 1028.45 1028.28 1028.20 1028.22 1028.16 1028.36 1028.27 1028.22 1028.19 1027.90 1027.22 1026.87 1026.16 1025.20 1024.45 1023.63 1022.77 1021.97 1021.15 1020.44 1019.73 1019.13 1018.42 1017.44 1016.68 1015.89 1015.16 1014.74 1014.33 1013.41 1012.92
1028.78 1028.62 1028.43 1028.08 1027.75 1027.71 1027.63 1027.43 1027.37 1027.43 1027.55 1027.46 1027.30 1027.19 1027.34 1027.20 1027.11 1027.01 1026.87 1026.91 1026.82 1026.54 1026.10 1025.71 1025.15 1024.25 1023.47 1022.66 1021.81 1020.97 1020.14 1019.48 1018.85 1018.22 1017.41 1016.65 1015.73 1014.97 1014.60 1014.04 1013.61 1013.14 1012.59
1027.65 1027.54 1027.31 1026.98 1026.66 1026.63 1026.47 1026.37 1026.30 1026.32 1026.31 1026.25 1026.11 1026.02 1025.96 1025.98 1025.82 1025.69 1025.53 1025.51 1025.02 1024.90 1024.63 1024.13 1023.59 1022.94 1022.05 1021.01 1020.11 1019.33 1018.78 1018.05 1017.49 1016.64 1016.21 1015.64 1015.28 1014.78 1014.22 1013.61 1013.03 1012.46 1011.85
1026.72 1026.52 1026.29 1026.08 1025.75 1025.63 1025.41 1025.30 1025.25 1025.30 1025.24 1025.08 1024.93 1024.87 1024.77 1024.76 1024.73 1024.59 1024.12 1023.56 1023.05 1022.49 1021.84 1021.04 1020.66 1020.33 1019.78 1018.89 1018.09 1017.61 1017.31 1016.91 1016.44 1015.90 1015.67 1015.64 1015.17 1014.62 1013.98 1013.30 1012.49 1011.77 1011.07
Wind_Speed
6 6 6 6 6 5 6 6 6 6 4 3 2 2 3 3 4 5 7 6 6 6 6 5 7 7 7 8 9 7 8 4 11 5 5 3 6 5 9 7 8 14 13
8 6 6 5 4 5 5 6 6 6 5 3 1 2 2 2 3 2 4 5 5 6 7 4 4 5 4 7 7 9 5 3 7 4 4 7 6 7 12 8 9 13 10
14 9 7 5 5 5 5 6 5 6 5 5 3 2 2 2 2 3 4 5 6 6 6 5 5 5 4 5 5 6 7 6 3 7 4 5 4 10 4 8 10 10 11
11 10 9 7 6 5 5 5 6 6 7 6 5 6 4 3 3 3 3 4 6 6 6 6 6 5 3 4 5 5 3 3 4 3 6 1 3 4 8 2 10 10 12
13 12 9 8 6 5 5 5 6 7 7 7 7 5 5 3 2 2 4 4 5 6 7 7 6 5 5 4 5 4 4 3 2 3 2 3 4 5 5 9 10 9 9
9 8 7 8 6 5 5 5 6 6 6 6 7 7 6 6 6 7 6 6 5 4 6 8 5 5 5 5 4 4 5 4 4 4 3 3 3 4 4 6 10 13 8
9 9 9 7 6 5 5 5 5 6 5 6 5 5 5 4 4 5 5 8 6 5 6 6 5 5 5 6 5 5 5 5 5 5 4 4 5 5 7 8 10 7 9
6 7 7 6 7 7 5 5 4 4 4 4 4 4 4 3 3 3 4 4 5 6 8 5 5 5 6 6 5 5 5 6 5 7 6 6 6 5 6 7 9 12 7
3 5 6 6 6 6 5 4 4 3 3 3 3 4 4 5 4 5 5 5 5 7 8 7 8 7 6 6 7 6 7 7 7 8 8 6 6 6 6 6 7 9 12
3 3 4 5 3 4 4 3 3 3 2 3 3 4 4 4 5 5 6 7 7 7 8 8 8 8 7 6 5 7 7 8 7 7 8 7 6 7 7 7 7 7 11
1 2 2 3 3 3 2 2 2 1 3 3 3 4 4 5 5 6 6 7 7 7 8 8 9 9 8 7 7 7 9 10 9 8 9 11 9 8 7 7 8 8 9
3 1 3 2 2 1 1 1 1 2 3 3 4 6 6 5 6 7 7 8 8 8 9 9 9 9 9 9 9 10 10 10 11 10 10 11 9 11 9 8 11 10 10
3 3 2 2 3 2 3 3 3 4 4 4 5 6 6 6 7 7 8 8 8 9 9 10 9 10 10 10 10 11 11 11 12 11 12 12 10 12 9 10 10 10 10
1 3 2 3 3 4 4 5 6 5 5 5 5 7 7 7 7 8 8 9 8 9 9 9 9 10 10 12 12 13 12 12 12 12 12 13 12 14 13 12 14 13 12
3 2 3 4 4 4 5 5 6 6 5 6 6 8 8 7 8 9 9 9 9 9 9 10 10 10 10 10 11 12 12 13 13 13 13 14 17 25 23 12 11 13 12
6 4 4 5 6 6 6 6 7 7 4 6 8 8 7 8 8 9 9 9 9 9 9 10 11 11 10 19 21 19 13 14 15 14 13 13 21 21 28 29 29 26 16
7 7 7 6 6 7 7 8 8 4 5 7 9 8 8 9 9 9 9 9 10 9 10 10 11 12 12 22 23 23 13 13 12 13 13 14 12 20 15 23 28 27 30
8 8 7 6 7 6 7 7 7 7 7 9 10 9 9 10 10 9 9 9 9 9 10 10 11 13 12 21 22 23 15 13 14 13 14 15 17 16 18 17 18 19 19
8 9 7 7 7 9 10 8 7 7 7 10 9 10 9 9 9 9 9 9 8 9 9 12 12 13 13 21 23 21 14 14 15 14 14 15 17 24 29 19 19 19 18
7 9 11 9 8 12 8 7 9 7 10 9 10 9 8 8 8 9 8 7 8 11 10 14 13 16 16 20 25 22 11 14 12 14 15 24 21 28 30 18 16 17 17
10 10 10 12 13 10 7 9 10 11 13 9 9 8 7 9 9 7 4 7 7 10 10 13 12 13 14 15 25 24 13 11 11 12 12 11 25 28 30 30 18 19 21
12 13 12 12 12 10 8 12 12 13 9 9 10 10 7 7 6 7 7 6 6 8 10 10 10 9 12 20 21 23 23 21 13 12 11 13 26 30 31 28 30 32 29
14 13 12 14 13 12 8 13 16 10 9 8 10 9 7 7 6 6 8 5 5 7 8 7 8 9 10 10 21 23 24 23 16 11 18 30 30 31 25 27 28 28 12
14 13 13 15 15 13 12 13 11 9 8 11 11 8 7 9 7 7 7 6 7 7 8 8 9 9 9 9 9 10 11 19 16 18 15 20 26 27 18 17 12 10 10
14 13 13 14 16 14 13 11 12 10 10 10 9 9 8 9 8 7 7 7 9 10 8 10 10 9 10 11 19 17 10 9 13 18 9 10 7 9 9 9 10 10 10
13 13 15 15 15 14 14 13 11 11 12 12 10 9 8 7 7 7 8 17 22 24 26 26 19 11 22 27 25 23 24 26 27 13 7 8 8 9 10 10 11 10 14
Wind_Direction
157 145 134 128 112 88 84 68 63 37 50 65 51 49 62 56 41 38 23 20 14 17 21 19 20 17 27 13 12 351 356 352 354 323 329 298 303 52 4 356 354 7 5
159 160 154 148 118 115 99 80 68 52 44 49 62 113 131 125 108 80 38 28 26 21 45 29 25 19 19 17 14 18 351 339 7 340 305 346 334 350 343 3 8 354 1
166 167 159 150 132 114 108 92 82 71 51 40 26 49 88 87 47 30 27 17 17 18 23 21 19 20 28 20 359 20 12 354 340 10 21 345 341 326 331 352 356 353 350
167 162 161 157 150 130 104 87 71 61 57 41 54 56 59 28 19 352 353 0 10 10 12 11 11 16 17 17 360 15 354 343 353 336 17 311 293 321 320 325 327 354 335
169 167 163 157 140 124 110 98 83 66 51 51 51 53 46 26 337 346 351 5 3 9 4 5 359 4 3 355 350 347 348 329 309 324 324 291 278 261 279 306 324 321 332
155 149 142 136 128 127 112 100 91 69 54 50 47 46 36 2 1 355 356 356 353 348 349 350 341 348 342 342 329 315 312 301 291 291 284 280 298 298 291 296 309 305 312
146 148 152 148 137 135 122 105 78 65 48 45 46 38 26 21 360 351 346 341 339 338 330 328 332 330 324 321 318 312 302 290 280 269 279 273 260 268 283 293 301 296 312
147 158 151 146 152 138 110 98 96 82 51 45 40 28 12 1 337 340 331 317 312 310 308 303 318 308 312 312 308 304 296 287 296 283 269 274 270 267 272 275 295 302 294
125 143 149 148 130 128 121 107 93 85 58 34 22 358 10 346 326 318 306 296 292 298 306 315 306 302 299 298 303 297 295 288 287 284 283 275 278 272 268 267 273 290 300
107 106 125 134 124 125 122 111 87 55 16 11 7 359 328 310 297 297 292 291 292 294 295 298 296 297 293 289 283 290 287 284 279 278 274 270 276 276 275 274 274 269 279
291 201 148 101 102 117 117 129 111 25 349 338 322 301 294 289 287 289 288 285 291 291 291 294 294 292 292 288 284 276 276 270 273 271 277 278 276 274 275 271 267 269 270
35 152 149 133 145 160 179 262 301 296 281 284 279 282 282 283 278 279 282 287 285 286 287 287 287 288 288 287 281 279 283 279 276 274 269 269 274 272 270 271 271 268 268
70 100 137 195 217 250 256 257 263 265 270 267 272 282 281 278 273 273 279 282 282 280 280 286 283 283 282 284 281 277 275 269 265 265 265 267 264 266 265 264 268 268 268
126 176 201 229 237 244 251 262 268 257 268 272 267 265 265 267 267 269 271 273 275 277 277 275 277 280 281 282 282 281 276 271 266 264 265 269 266 267 271 264 263 264 267
266 253 214 230 243 262 267 267 266 267 260 256 262 261 263 263 267 269 270 271 270 273 277 280 280 280 278 276 271 267 266 268 273 272 272 271 269 271 268 265 270 272 272
246 249 250 236 240 244 252 259 259 258 214 252 254 259 263 267 265 266 268 269 269 271 274 275 279 279 276 282 284 285 278 274 274 277 274 275 284 284 281 278 281 282 278
237 244 234 238 252 254 247 255 254 251 249 248 258 255 258 261 259 261 263 263 265 269 270 272 275 276 275 282 284 282 275 276 278 279 281 280 277 285 286 282 280 281 279
248 238 229 240 251 251 256 252 258 253 250 254 251 248 242 246 251 250 253 258 261 266 269 275 276 275 275 281 283 285 286 281 277 277 277 274 276 272 273 270 269 267 265
243 234 227 232 237 242 250 238 248 241 243 255 243 244 237 244 246 246 245 254 259 263 267 278 278 273 275 282 284 284 286 281 278 274 270 269 270 270 274 271 270 272 269
232 244 245 250 256 260 249 240 253 247 258 256 246 243 237 233 240 242 240 245 250 264 272 283 281 277 282 283 284 284 273 270 272 272 270 272 275 279 281 282 279 278 277
249 245 248 250 251 253 233 246 255 251 260 253 250 248 236 237 239 242 220 245 246 268 274 275 273 273 270 272 276 277 271 270 273 271 273 271 280 286 286 284 278 278 280
262 260 263 258 256 244 226 247 249 254 257 245 254 254 245 246 246 224 249 234 237 254 267 269 272 267 268 273 275 275 274 273 277 283 282 281 286 283 282 283 281 289 295
269 268 264 267 266 260 233 249 255 253 251 243 249 248 247 247 234 236 250 244 223 241 258 255 265 272 271 269 273 278 282 283 282 278 276 283 285 290 295 294 286 296 297
272 272 270 269 270 264 259 249 255 245 238 251 255 252 238 255 239 241 238 237 244 240 248 252 256 262 264 263 261 261 262 272 280 278 273 275 279 294 294 299 295 285 282
271 270 268 268 270 270 264 260 258 252 250 246 249 253 248 246 256 240 240 233 246 234 243 241 237 245 256 255 258 258 249 268 275 284 288 286 304 294 291 287 283 284 282
269 267 266 267 268 267 267 265 257 252 254 257 258 253 247 239 243 244 257 261 271 270 270 273 265 238 246 258 281 298 299 300 298 289 296 302 297 292 293 290 288 284 285